Miscellaneous Local Product
Issued by NWS Hastings, NE

Home | Current Version | Previous Version | Graphics & Text | Print | Product List | Glossary On
Versions: 1 2 3 4 5 6 7 8 9 10 11 12 13 14 15 16 17 18 19 20 21 22 23 24 25 26 27 28 29 30 31 32 33 34 35 36 37 38 39 40 41 42 43 44 45 46 47 48 49 50
864
AXUS43 KGID 270902
MISGRI

GID CWA HOURLY WEATHER ROUNDUP
NATIONAL WEATHER SERVICE HASTINGS NE
400 AM CDT SAT MAY 27 2017

NOTE: "FAIR" INDICATES FEW OR NO CLOUDS BELOW 12,000 FEET WITH NO
SIGNIFICANT WEATHER AND/OR OBSTRUCTIONS TO VISIBILITY.

...SOUTH CENTRAL NEBRASKA...

CITY           SKY/WX    TMP DP  RH WIND       PRES   REMARKS
GRAND ISLAND   CLOUDY    60  48  64 E3        29.90S
HASTINGS       CLOUDY    60  47  61 NE6       29.90F
KEARNEY        CLOUDY    59  50  72 CALM      29.94S
ORD            LGT RAIN  55  51  86 N8        29.92R
YORK           CLOUDY    59  46  63 E7        29.89S
AURORA         CLOUDY    60  47  62 E7        29.89S
LEXINGTON      CLOUDY    57  55  92 E8        29.89S
HOLDREGE       RAIN      59  56  91 SE8       29.92F
HEBRON         CLOUDY    62  53  70 NE7       29.86R

...NEBRASKA PANHANDLE...

CITY           SKY/WX    TMP DP  RH WIND       PRES   REMARKS
CHADRON        LGT RAIN  51  47  86 CALM      30.00R
ALLIANCE       CLOUDY    49  49 100 NW6       29.99R
SCOTTSBLUFF    CLOUDY    49  46  90 W7        30.01S
SIDNEY         CLOUDY    51  49  92 N7        29.99R

...WESTERN AND NORTH CENTRAL NEBRASKA...

CITY           SKY/WX    TMP DP  RH WIND       PRES   REMARKS
VALENTINE      CLOUDY    54  48  80 SE6       29.91F
AINSWORTH      CLOUDY    54  50  86 CALM      29.94F
ONEILL         LGT RAIN  55  52  88 NW3       29.97S
BROKEN BOW     CLOUDY    54  52  93 N12       29.93F
IMPERIAL       CLOUDY    55  51  86 E6        29.88S
NORTH PLATTE   CLOUDY    54  52  93 NE15      29.89F
MCCOOK         CLOUDY    58  55  90 NE7       29.87R

...EASTERN NEBRASKA...

CITY           SKY/WX    TMP DP  RH WIND       PRES   REMARKS
NORFOLK        CLOUDY    56  48  74 CALM      29.88F
SO SIOUX CITY  CLOUDY    54  48  80 E3        29.89F
TEKAMAH        CLOUDY    54  48  80 NW7       29.89F
ALBION         CLOUDY    60  46  59 CALM      29.89F
OMAHA EPPLEY   CLOUDY    58  49  72 N7        29.88F
OFFUTT AFB     CLOUDY    61  49  65 N6        29.87S
MILLARD        CLOUDY    64  49  57 CALM      29.88F
LINCOLN        CLOUDY    59  48  67 N6        29.87F
NEBRASKA CITY  CLOUDY    64  46  51 NE8       29.87S
BEATRICE       CLOUDY    64  51  62 NE9       29.84F
FALLS CITY     CLOUDY    66  51  58 NE5       29.83F

...NORTHERN KANSAS...

CITY           SKY/WX    TMP DP  RH WIND       PRES   REMARKS
GOODLAND       CLOUDY    52  50  93 E6        29.89R
HILL CITY      TSTM      60  56  86 NE25G31   29.83F
NORTON         LGT RAIN  57  54  88 E14G20    29.82F
PHILLIPSBURG   CLOUDY    61  61 100 NW7       29.94S
SMITH CENTER   RAIN      57  55  94 NW17      29.92R
HAYS           TSTM      57  55  93 CALM      29.89R
RUSSELL        TSTM      57  55  93 N26G36    29.86S FOG
CONCORDIA      CLOUDY    62  55  77 NE3       29.83S
SALINA         CLOUDY    67  61  81 NE8       29.78F
TOPEKA         CLOUDY    65  64  97 CALM      29.81F



USA.gov is the U.S. government's official web portal to all federal, state and local government web resources and services.